Theta_e
293 294 294 295 295 293 293 294 294 295 296 295 292 291 295 291 283 284 290 292 292 294 298 300 301 302 303 303 304 304 304 304 304 303 303 301 300 300 300 300 300 300 300 300 301 307 314 316 315 315 316 315 315 315 315 316 318 320 320 320 320 319 319 319 319 321 322 322 321 320 320 319 319 318 319 318 317 317 317 317 315 313 313 313 311 310 310
293 294 293 295 294 294 293 293 294 295 295 294 294 294 294 294 291 294 294 293 291 295 298 302 303 305 305 303 304 304 304 303 303 302 300 299 298 298 298 298 298 299 298 299 299 299 299 300 302 307 313 316 316 316 316 317 317 318 318 317 317 318 318 319 320 320 320 320 320 319 319 318 317 317 317 317 318 317 317 317 317 314 313 313 313 310 310
290 292 292 293 293 291 290 294 294 296 295 296 295 295 296 296 294 293 293 291 290 298 301 302 305 306 304 304 302 301 301 301 300 299 298 298 298 298 298 298 298 298 297 297 298 297 297 298 298 300 301 302 309 314 315 316 317 317 317 316 316 316 316 318 318 319 318 318 317 317 316 316 316 317 318 318 317 317 316 316 315 316 316 315 314 312 310
286 291 292 291 292 291 290 290 291 291 293 290 293 288 294 293 290 290 291 289 288 296 301 302 303 304 305 301 300 300 299 299 298 297 297 297 297 297 297 297 297 297 296 296 296 296 296 297 298 298 299 300 300 301 303 312 316 317 315 314 316 318 319 320 320 319 317 316 316 315 316 316 316 315 316 317 317 316 315 316 315 315 315 315 315 314 314
283 290 291 291 290 287 284 284 288 290 292 295 294 295 296 296 294 290 287 287 294 298 301 300 301 302 301 300 300 299 299 298 297 295 294 294 295 296 296 296 296 296 296 295 295 295 296 296 297 297 298 299 299 300 300 301 307 308 307 306 306 306 307 307 306 312 317 316 314 313 315 315 315 316 316 316 315 317 317 317 315 314 312 314 314 315 313
284 289 289 289 283 277 280 290 293 292 292 293 290 289 293 296 295 291 294 295 296 298 299 298 293 293 293 294 296 298 296 294 293 294 294 294 295 295 296 296 296 295 295 295 295 295 295 296 296 297 298 298 298 299 300 301 302 304 304 304 303 303 303 303 304 304 306 309 313 314 313 313 315 316 315 314 314 315 317 316 314 312 312 313 313 313 313
283 286 287 282 277 279 290 294 294 295 296 296 294 294 295 296 297 296 295 296 296 295 294 294 294 295 296 297 296 296 297 296 294 293 293 294 294 294 295 295 295 295 295 295 295 295 296 297 297 296 297 298 298 299 299 299 301 301 302 301 301 301 301 302 302 302 302 304 304 305 306 309 309 310 311 310 313 313 314 315 313 312 313 312 311 312 312
286 283 282 277 279 288 292 293 292 293 295 294 293 291 295 297 296 296 293 297 295 294 294 294 296 295 296 297 297 297 298 297 295 294 293 293 293 292 292 292 294 295 295 295 296 296 298 297 296 297 296 297 298 298 299 298 299 300 301 301 301 301 300 300 301 301 301 301 302 303 304 304 305 305 305 305 307 312 312 313 313 312 311 311 311 312 312
281 282 282 282 287 288 285 284 287 288 286 289 288 284 288 297 296 296 294 294 293 294 294 294 294 295 295 293 293 297 297 296 296 295 294 294 292 292 292 292 293 295 296 297 298 297 297 296 297 297 297 297 298 298 297 298 298 299 299 299 299 299 299 299 299 299 300 300 300 302 303 303 304 304 304 305 305 306 304 307 311 312 313 313 314 314 312
284 282 281 281 280 277 281 287 292 293 293 294 294 291 286 295 295 296 294 292 292 292 293 293 294 295 291 287 288 293 295 295 294 294 294 295 295 294 293 293 294 295 297 297 298 298 298 298 298 299 300 299 298 298 297 297 297 298 298 298 299 299 299 298 299 299 299 299 300 301 301 303 304 304 304 304 304 304 303 304 305 307 311 313 313 314 313
282 282 279 278 276 280 286 288 292 295 295 296 295 289 284 292 295 295 293 291 291 291 292 292 293 290 285 284 287 291 293 293 293 292 292 293 294 294 294 293 294 295 296 298 298 298 298 297 299 300 300 299 298 296 297 296 298 298 297 298 299 299 299 299 299 300 300 300 300 300 300 300 302 302 303 303 303 303 303 304 304 305 307 310 312 313 312
283 282 279 278 281 280 286 289 291 293 297 296 293 281 280 291 298 296 294 291 291 292 293 292 290 287 283 284 287 291 292 293 293 293 292 291 292 293 296 297 297 297 300 298 298 297 295 297 300 301 300 299 299 298 299 298 298 297 297 297 297 298 298 298 299 299 299 300 299 300 300 300 300 300 301 301 301 302 302 303 303 303 304 305 307 311 313
284 283 280 281 281 286 289 290 291 293 296 294 282 278 285 293 297 295 294 293 294 294 293 292 288 290 291 291 292 292 293 292 292 293 294 294 293 293 294 294 297 296 298 297 297 299 298 299 299 300 299 298 298 297 297 298 298 298 298 298 298 298 298 298 299 299 299 299 299 299 300 300 300 300 300 300 300 300 301 302 301 302 302 303 304 307 311
281 281 280 279 280 285 289 291 294 293 291 282 280 289 297 295 293 294 295 293 292 292 291 292 292 293 294 294 293 292 292 291 292 293 294 294 293 294 294 294 294 295 295 295 295 297 298 297 298 297 297 297 296 296 296 297 297 298 298 297 298 298 298 297 298 298 299 299 300 301 300 300 298 298 299 300 300 299 299 299 299 299 299 300 301 302 305
282 280 278 277 274 284 292 292 290 291 284 284 292 294 294 295 293 292 292 292 292 292 291 292 293 293 293 293 292 292 292 292 291 291 292 292 291 290 291 290 292 293 293 294 295 295 297 297 298 297 297 296 296 295 295 297 298 298 297 298 297 297 297 297 298 298 298 298 298 300 299 299 298 297 297 297 298 298 298 298 298 299 299 300 300 301 302
278 277 276 276 283 286 292 290 283 288 290 292 294 294 291 293 294 293 293 293 293 293 292 292 292 293 293 293 292 292 292 292 292 292 292 292 292 292 292 292 292 292 293 294 295 295 296 297 296 297 296 295 295 294 295 297 296 297 297 297 297 296 296 296 296 296 297 297 296 296 296 296 296 296 296 296 296 297 296 296 296 295 295 296 296 296 297
281 279 282 288 290 290 291 292 291 292 293 294 293 291 290 289 289 292 291 291 293 294 293 293 292 291 292 292 293 292 292 292 293 292 292 292 292 293 293 293 293 293 293 293 294 295 295 296 295 295 295 294 294 293 294 296 295 294 295 295 295 294 295 295 295 296 296 296 296 296 296 296 294 294 294 294 294 294 295 295 295 294 295 295 295 296 296
289 290 290 291 289 290 290 292 293 292 293 294 294 292 290 291 291 292 291 292 292 293 294 293 292 291 292 292 292 292 292 292 292 292 291 292 292 292 293 293 293 293 293 294 294 294 295 296 296 296 296 295 293 294 296 296 295 295 295 294 294 294 294 294 294 295 295 295 295 295 295 295 295 295 294 294 294 294 293 293 294 294 294 293 293 293 294
285 279 287 288 288 289 290 290 291 292 293 293 293 292 291 291 292 292 293 292 292 292 292 291 291 291 292 292 292 292 292 292 292 291 291 291 291 291 291 292 292 292 293 293 293 293 293 295 295 295 295 296 295 295 295 295 295 295 295 294 294 294 293 294 293 294 293 293 293 294 294 294 294 294 294 293 293 292 292 292 292 292 291 291 292 292 292
283 282 287 288 290 291 291 290 289 289 291 292 292 292 292 292 293 293 293 293 292 293 292 292 292 292 292 291 290 290 290 291 291 291 291 291 291 291 291 291 292 291 291 291 292 293 292 293 294 294 294 294 295 295 295 295 294 294 293 293 292 292 293 293 293 293 293 290 292 292 292 293 293 293 293 293 292 292 291 292 291 291 290 290 290 291 291
287 290 290 290 289 290 291 291 290 289 289 290 291 291 291 292 292 292 293 294 293 293 293 293 292 291 291 291 291 291 291 291 291 291 292 291 290 290 291 291 291 290 291 291 291 292 292 293 293 293 293 294 295 294 294 294 293 293 292 291 291 291 292 293 293 294 294 293 292 292 292 292 292 292 292 292 292 292 292 292 292 291 291 290 290 291 292
281 282 286 289 284 283 288 290 290 290 291 291 290 290 290 290 290 289 290 291 292 292 292 291 290 289 289 289 289 289 290 290 291 291 291 291 291 291 292 293 291 292 292 291 292 292 292 293 293 293 293 293 294 295 295 295 295 293 291 291 290 291 292 293 293 294 293 293 294 293 293 292 292 293 290 292 292 292 291 292 291 290 289 289 291 291 291
282 288 291 291 290 289 290 291 292 292 293 292 292 290 289 289 290 290 289 289 289 289 290 290 290 289 288 288 288 289 289 289 289 290 290 290 291 291 293 292 292 292 292 293 293 293 293 293 294 294 293 293 294 295 296 295 294 292 291 290 289 290 291 292 293 293 293 293 293 293 292 292 291 291 291 292 291 291 291 291 291 291 291 290 290 290 291
289 291 291 292 290 287 290 292 292 292 293 292 292 292 291 290 290 290 290 289 290 290 291 291 291 290 289 288 288 287 288 288 287 288 289 290 290 291 291 291 291 291 292 292 293 293 294 294 293 292 292 293 294 294 294 292 291 290 290 289 289 291 292 293 292 292 292 291 291 291 291 292 291 291 290 290 291 291 291 291 291 291 290 290 290 290 290
285 290 292 293 292 292 292 293 293 293 293 293 291 291 290 289 289 289 288 288 290 290 290 290 290 290 289 288 288 287 287 287 288 288 288 289 288 289 290 290 291 291 292 293 294 294 295 294 292 291 291 293 294 294 292 291 291 290 290 289 289 289 291 292 292 291 291 292 291 292 292 292 292 292 291 290 289 289 291 291 290 290 290 290 290 290 290
290 290 292 292 292 291 292 292 291 291 290 289 289 290 291 292 290 289 288 287 288 288 288 287 287 289 288 288 287 287 287 287 288 288 288 289 289 289 288 288 289 291 293 293 291 291 291 291 291 291 292 294 294 294 292 291 291 291 290 289 290 291 292 292 292 292 292 292 292 292 293 293 292 291 291 291 290 290 289 289 290 290 290 290 290 290 290
290 290 289 288 287 287 289 288 286 289 289 289 289 290 289 289 291 290 289 288 288 288 287 287 286 287 288 288 288 287 287 287 288 288 289 289 288 287 288 289 291 291 292 293 293 293 291 291 291 292 293 294 294 294 292 292 291 290 290 289 290 290 289 289 291 291 292 291 291 292 292 292 292 291 291 291 291 289 289 288 287 287 287 289 290 290 291
289 289 289 285 284 286 288 290 290 290 291 291 290 289 289 289 290 289 289 288 289 289 288 287 286 287 287 287 286 286 287 286 287 288 288 288 287 287 288 290 292 292 291 291 291 292 292 292 292 291 292 292 293 293 292 292 291 290 289 290 290 291 291 290 290 290 289 290 289 290 291 291 291 291 290 290 290 290 289 288 287 287 287 288 289 289 290
289 289 289 289 288 288 288 289 289 288 288 289 290 289 289 288 288 289 288 289 288 288 288 289 289 288 287 287 286 285 286 286 285 285 285 286 287 287 288 289 290 289 289 289 290 292 291 291 290 290 292 293 294 292 292 291 290 290 290 290 289 288 288 289 290 290 289 288 290 290 288 288 289 290 290 290 289 289 288 287 286 286 286 287 288 289 290
289 290 290 288 289 289 288 286 287 289 289 289 289 290 288 287 286 286 288 289 289 289 288 287 286 287 287 286 286 285 284 284 284 285 285 286 285 285 286 287 288 289 289 291 290 289 289 289 289 289 291 293 292 291 291 291 290 291 290 290 290 289 289 289 289 289 288 288 289 288 287 287 289 290 289 289 288 287 286 285 285 285 286 287 288 287 288
291 292 292 291 291 289 288 287 288 289 289 289 289 288 287 287 286 287 287 289 289 288 287 287 287 286 286 285 285 284 283 282 283 284 284 284 282 282 284 285 284 284 286 286 288 288 288 288 289 290 292 293 291 291 292 291 290 289 290 289 289 288 289 288 288 288 287 287 288 288 287 287 288 288 287 287 287 286 285 285 286 287 288 288 289 289 290
289 291 292 289 288 288 288 289 289 288 287 287 286 285 286 285 286 287 288 288 287 286 286 286 286 285 285 284 284 283 281 280 282 281 281 280 280 280 283 284 284 284 284 285 285 286 287 288 289 291 292 292 292 291 291 291 290 290 289 289 289 289 289 288 288 288 286 286 286 288 287 288 288 287 286 286 287 287 286 287 287 288 287 288 289 288 286
287 286 286 287 288 288 288 289 288 288 288 287 286 287 287 286 287 288 287 287 286 286 286 287 286 284 283 282 281 280 279 278 278 278 278 278 277 278 280 282 283 284 284 286 287 287 288 289 290 292 292 291 291 291 292 291 290 289 289 287 288 288 289 289 288 288 287 286 285 286 286 287 286 286 285 286 287 287 288 288 288 288 287 287 285 285 286
288 287 288 288 287 286 286 285 286 286 286 287 288 287 287 287 287 287 287 287 287 286 287 286 285 283 281 279 278 278 277 277 279 279 279 280 280 280 280 281 283 285 286 287 288 289 289 291 291 290 290 291 291 292 292 291 290 289 289 287 287 288 290 289 288 288 288 288 288 287 287 286 287 287 287 287 287 287 287 287 287 286 286 286 286 286 287
291 291 290 290 290 290 289 287 285 286 286 284 286 287 287 288 288 287 287 286 286 286 286 284 282 280 279 276 274 275 275 277 278 278 278 280 282 282 281 282 285 286 287 288 289 290 291 290 289 288 287 289 291 292 291 290 289 288 289 289 288 288 289 288 287 287 289 290 290 290 288 288 287 287 287 287 287 287 287 286 286 286 286 285 285 286 287
290 289 290 289 289 288 288 286 287 288 287 286 284 286 287 287 287 286 285 285 287 286 285 283 281 278 276 274 274 275 276 277 278 280 282 282 280 280 280 281 283 283 285 287 290 291 291 289 287 286 288 289 290 292 290 287 287 288 288 288 288 287 287 287 287 287 288 290 289 289 288 287 286 286 287 286 286 286 286 285 286 286 286 286 286 287 287
289 290 290 289 290 288 288 288 288 288 287 287 288 288 288 288 289 288 288 287 288 286 284 283 281 278 276 276 276 274 274 276 278 280 282 280 279 277 278 278 281 282 285 286 289 290 289 288 287 287 289 291 292 291 288 286 287 287 288 288 287 287 286 286 287 288 288 288 288 289 288 288 288 289 289 289 287 285 284 284 285 286 287 287 286 286 287
290 290 289 288 289 289 289 290 290 290 289 288 288 288 287 286 287 288 287 288 288 287 285 283 282 279 278 278 276 276 276 277 278 279 279 277 278 279 280 279 281 282 282 283 287 287 288 287 287 288 289 290 291 290 286 286 286 287 288 287 286 287 286 287 287 288 289 288 286 288 288 288 288 288 288 290 288 287 285 285 286 287 287 287 287 287 286
289 289 288 289 290 289 290 290 290 290 288 289 288 287 287 287 287 288 288 287 288 287 287 285 284 282 281 280 278 278 277 278 279 278 277 279 279 279 280 281 283 284 284 286 287 287 287 286 286 288 288 288 290 289 288 286 286 286 289 288 287 286 286 286 288 288 289 288 286 286 286 287 287 287 287 288 288 286 286 287 287 287 288 288 287 287 287
290 290 289 290 289 290 289 289 290 290 290 290 288 288 289 288 287 288 287 288 288 288 288 287 285 283 282 281 281 281 282 281 281 280 280 280 280 280 282 283 286 287 287 287 287 286 287 287 287 287 286 287 288 286 286 285 285 285 289 288 287 285 286 286 287 287 288 288 287 286 285 286 286 287 287 288 288 286 285 287 288 288 288 288 288 287 287
290 290 290 290 290 290 292 291 290 289 289 290 289 289 289 290 288 287 287 287 288 287 287 286 286 285 285 284 284 285 285 285 285 283 282 281 280 279 280 281 284 288 286 286 286 285 287 286 285 284 284 284 285 285 284 284 284 285 289 288 287 285 285 285 286 287 287 288 287 287 286 286 287 287 287 287 288 288 288 288 288 288 288 287 287 287 287
289 290 290 290 290 291 292 292 290 290 290 291 290 290 290 290 289 288 288 289 289 288 286 286 285 285 284 285 285 285 285 286 286 286 285 283 282 281 281 283 285 284 286 284 285 285 285 286 284 284 283 282 283 285 284 284 284 285 288 288 288 286 285 285 285 285 286 287 287 287 286 287 287 286 287 287 287 287 287 288 288 288 288 288 287 287 287
290 290 290 289 289 290 290 290 290 290 290 292 292 291 290 289 289 289 289 288 288 287 286 285 285 284 283 282 283 283 283 285 286 287 286 286 286 286 284 285 285 283 285 284 284 283 284 283 282 282 283 282 283 284 284 284 285 287 289 288 287 286 286 284 284 284 285 286 286 287 286 286 286 286 286 286 286 286 286 287 287 287 288 288 288 288 287
289 289 289 289 289 291 290 290 290 290 289 290 291 292 291 290 290 289 288 288 288 287 286 285 284 284 284 283 281 280 281 282 283 283 283 283 285 286 285 285 283 284 286 285 284 284 283 282 281 282 284 284 284 284 284 285 288 289 290 288 288 287 286 285 283 283 283 283 284 286 286 286 286 286 286 286 286 286 286 287 287 287 288 288 288 287 287
289 289 289 289 290 289 290 290 290 289 290 291 291 290 291 290 290 290 289 288 288 287 286 286 285 284 284 283 282 283 282 283 283 282 282 281 281 283 285 285 285 284 284 284 284 284 282 282 282 285 284 284 284 284 284 285 286 287 287 286 288 287 286 285 284 283 283 284 285 285 286 286 286 285 285 286 286 286 286 286 286 287 287 287 287 286 286
289 290 289 290 290 290 291 293 294 292 293 291 290 289 289 290 290 289 289 289 288 287 287 286 285 285 285 284 284 285 285 285 285 284 283 284 281 282 285 285 284 284 283 284 284 284 282 284 285 284 284 284 284 283 284 285 285 286 288 287 286 286 286 285 285 285 283 283 284 285 283 283 283 285 286 286 286 286 286 286 286 286 286 286 286 286 286
289 289 289 289 290 291 290 290 292 290 290 290 288 287 288 289 290 290 289 289 289 289 288 287 287 287 286 285 284 283 281 281 282 283 284 282 283 284 284 285 284 285 284 284 283 283 282 282 284 284 284 284 284 282 283 284 285 285 285 286 285 284 284 286 286 285 285 284 285 285 285 285 284 283 284 285 286 286 286 286 286 286 286 286 286 286 285
291 290 290 290 290 291 292 290 289 289 289 288 289 288 288 290 289 289 289 289 289 289 289 288 288 287 286 285 285 284 283 281 280 281 283 282 282 283 282 281 283 284 284 284 285 285 284 284 284 284 284 284 282 283 284 285 284 283 283 283 284 283 283 283 286 285 284 285 284 285 284 286 287 286 286 285 285 285 286 286 285 285 285 285 285 285 284
290 290 291 292 291 291 291 291 290 289 288 289 289 288 290 289 289 289 289 289 290 289 288 288 289 288 286 286 286 284 286 286 285 282 282 282 282 282 283 284 285 285 284 283 284 283 284 284 284 284 284 284 282 284 283 283 283 282 282 282 283 282 283 284 283 284 283 283 284 283 283 284 284 285 286 285 284 284 284 283 283 283 283 283 283 283 283
291 291 290 290 290 291 291 289 287 286 287 289 289 288 289 289 287 287 287 287 289 288 288 288 288 288 286 285 284 285 285 285 286 285 285 285 285 284 283 283 283 284 284 283 286 284 284 284 284 284 283 283 283 283 283 283 283 283 282 282 282 282 283 284 285 285 284 284 284 283 282 282 284 284 285 284 284 284 283 283 283 284 285 284 283 283 283
289 290 289 290 291 291 293 292 291 291 290 291 291 289 289 288 286 286 286 288 288 288 288 288 288 288 286 284 284 284 285 286 286 286 284 284 283 283 283 282 283 283 283 282 283 284 282 281 281 283 284 283 283 283 282 282 282 282 283 282 282 282 282 282 282 282 282 283 282 283 282 283 282 283 282 283 284 284 285 285 285 284 284 284 284 283 283
291 290 290 290 290 291 291 292 292 291 290 291 290 289 287 287 288 287 287 288 287 287 287 286 287 288 288 286 284 284 284 285 284 283 284 283 283 282 283 284 282 282 282 281 281 284 282 283 284 285 285 282 281 282 284 284 283 282 282 283 283 282 283 282 283 283 283 283 283 282 282 282 282 282 283 283 284 284 283 283 283 282 282 282 283 283 283
Wind_Speed
3 6 7 8 4 5 6 12 11 13 12 13 8 3 1 4 4 7 3 6 11 8 6 8 8 8 10 10 11 11 11 12 13 14 15 15 15 14 14 13 13 12 11 9 8 7 2 1 3 7 7 8 8 7 6 6 7 6 5 7 8 7 2 3 4 5 4 4 4 4 4 4 4 4 3 2 3 3 2 3 5 6 5 5 5 5 4
5 2 10 8 9 3 6 10 9 9 11 10 9 6 3 10 8 13 12 11 8 4 5 11 7 4 5 10 11 11 12 12 13 15 15 16 16 15 14 14 13 12 12 12 12 13 13 14 13 8 5 7 7 6 5 6 7 7 9 9 10 8 4 3 4 5 5 5 5 3 4 3 3 3 1 2 3 1 1 0 3 5 6 5 5 6 5
6 6 5 11 8 3 6 6 11 11 9 9 9 5 11 14 10 12 16 15 10 7 7 8 9 5 3 10 12 13 14 15 14 15 15 15 15 14 13 13 14 13 13 13 13 14 14 14 13 12 13 12 9 5 3 5 6 5 8 9 9 9 4 5 3 3 5 4 3 3 2 3 2 2 1 1 2 2 2 3 3 3 1 1 3 4 4
1 6 4 5 7 6 7 12 13 15 8 4 3 2 5 1 9 7 14 11 7 7 8 10 9 8 2 10 14 13 12 14 14 13 14 14 14 14 13 13 12 13 14 14 14 14 14 14 14 14 12 12 12 12 10 3 5 3 6 5 6 6 5 1 3 1 3 3 3 3 3 3 1 1 2 2 1 2 3 3 3 3 3 4 3 0 3
4 4 12 3 4 2 4 7 9 10 10 2 5 7 9 7 2 13 9 4 4 10 11 12 11 9 5 9 10 14 14 14 15 15 14 14 14 12 13 13 12 12 12 12 12 12 12 13 13 14 13 12 12 11 11 12 6 9 11 12 11 11 10 10 10 4 1 3 3 1 0 0 1 1 1 0 1 1 1 1 2 2 2 3 3 4 3
0 7 4 5 5 4 1 1 5 5 3 4 7 5 4 1 2 3 5 11 6 10 11 12 12 13 11 13 14 13 13 14 15 15 13 12 12 11 11 12 11 10 9 10 10 10 10 10 11 10 11 11 10 9 10 12 14 13 14 13 12 12 12 11 9 8 7 6 3 1 2 2 1 1 2 3 2 1 0 0 1 3 3 2 2 2 3
1 4 7 6 2 1 0 2 10 10 11 10 11 9 12 9 10 8 10 10 10 12 13 12 15 15 16 16 17 15 13 13 12 12 11 11 10 10 10 10 10 9 9 9 10 11 10 10 10 11 12 10 9 12 11 12 11 12 12 13 12 11 11 10 9 10 9 7 5 5 5 4 5 6 5 4 2 2 3 4 4 4 4 4 4 3 1
1 2 2 2 0 2 3 3 10 14 8 12 8 9 7 10 11 12 5 6 13 13 13 12 13 16 16 15 14 13 13 13 12 12 10 10 10 9 6 6 6 8 9 10 10 9 8 9 10 10 10 9 10 10 10 11 10 11 11 11 11 10 10 10 10 10 10 10 10 9 7 5 5 5 5 4 5 5 3 4 3 2 2 2 4 4 4
1 2 4 3 3 2 7 4 7 7 5 8 7 1 4 4 4 7 12 11 12 12 12 13 13 13 13 13 10 12 14 14 12 12 10 10 9 8 6 6 7 7 7 7 7 8 9 10 10 9 8 9 9 9 10 9 10 11 11 11 10 9 9 9 9 9 9 10 10 10 9 8 9 8 7 7 6 5 5 3 3 5 5 5 5 5 5
1 4 3 2 1 2 0 2 5 3 5 10 9 1 3 10 11 4 10 12 9 11 11 12 12 13 16 11 8 9 12 13 13 11 10 8 7 7 7 4 3 3 4 6 7 8 8 8 8 7 6 8 9 9 8 8 9 9 9 9 9 8 8 8 8 7 7 7 8 8 9 10 9 8 7 6 6 5 5 6 7 6 5 5 5 5 6
1 2 2 1 2 1 0 3 3 2 8 8 10 4 5 6 6 7 9 11 8 6 9 8 7 12 10 7 6 7 10 10 11 11 8 7 6 5 4 4 4 2 2 5 5 5 5 6 5 5 6 6 6 6 6 7 7 8 7 7 7 7 7 7 7 7 7 6 6 6 6 7 7 9 9 8 7 7 7 7 7 7 7 7 7 5 4
3 2 2 2 2 1 2 5 4 4 5 6 2 3 1 4 4 7 8 10 8 8 7 6 8 13 11 8 7 10 12 10 10 10 8 6 5 4 3 2 3 2 1 2 2 2 4 3 2 1 5 4 5 3 4 4 6 6 5 4 3 3 4 4 4 5 5 5 5 5 6 6 6 6 7 8 8 9 8 7 7 7 7 7 5 6 7
2 4 2 2 1 1 3 4 7 8 2 1 3 2 3 3 2 6 8 9 6 6 8 5 6 4 9 10 10 10 10 9 7 6 5 6 6 5 4 3 2 3 3 3 3 2 2 2 2 2 3 2 3 3 4 5 5 3 3 3 3 3 3 3 3 3 3 3 4 4 4 5 5 6 6 7 7 7 7 7 7 7 7 7 7 6 6
2 2 4 2 1 1 4 8 3 4 2 3 4 1 2 5 7 7 7 10 8 9 9 8 9 9 11 12 11 10 9 8 6 6 5 5 5 3 3 4 3 2 2 3 3 2 2 4 5 4 3 4 4 5 5 5 3 2 3 3 3 3 3 3 4 4 4 4 4 5 4 4 5 5 5 6 6 7 7 7 8 8 7 8 9 10 8
1 3 3 2 1 3 9 6 4 9 6 0 2 6 7 6 10 11 10 10 9 12 12 12 13 13 11 10 9 8 8 7 6 6 5 5 6 4 3 4 5 4 3 4 3 3 4 4 4 3 4 4 4 4 3 2 2 3 3 3 3 4 4 5 6 5 5 6 6 5 5 5 5 5 5 6 6 7 7 8 8 7 7 7 7 8 8
2 4 3 2 1 3 7 8 5 4 3 1 3 8 9 7 8 9 9 9 8 10 11 11 11 11 11 10 9 9 8 7 6 5 5 4 4 5 5 4 4 5 3 3 3 4 3 3 3 2 2 2 1 2 3 2 4 4 4 5 6 6 7 7 8 8 8 8 7 6 6 7 6 6 6 6 7 6 7 7 7 8 7 7 7 8 8
2 2 4 4 4 3 4 6 8 7 8 11 12 13 10 9 9 9 10 9 8 9 12 12 10 10 8 9 8 7 6 5 5 5 5 4 4 4 5 4 4 4 2 1 3 4 3 2 2 3 2 1 1 2 2 1 1 3 5 6 6 6 6 7 7 7 8 8 8 7 7 7 7 7 6 6 7 6 6 6 6 6 6 7 7 7 8
8 9 7 6 7 6 8 9 6 7 10 11 11 11 10 8 8 8 9 10 10 9 8 10 8 8 8 8 7 7 6 5 6 5 5 5 5 5 4 5 4 4 4 3 4 3 2 1 1 1 1 2 2 2 4 5 6 6 5 6 7 6 6 6 6 7 7 7 6 6 7 6 6 6 7 6 6 6 5 5 5 5 6 7 7 7 8
4 3 4 6 5 5 7 8 7 8 9 9 8 10 9 7 7 9 10 11 11 11 11 11 9 8 6 6 6 6 5 4 4 6 5 4 4 4 4 4 4 4 3 3 4 2 1 0 0 1 2 3 3 4 6 5 5 5 5 5 5 5 6 6 6 6 6 6 6 6 6 6 6 6 6 6 6 6 6 6 6 6 5 6 7 8 8
4 4 6 5 6 5 5 6 6 7 7 8 8 8 7 7 6 8 9 9 9 8 9 7 7 7 7 8 6 4 4 5 5 5 5 4 3 4 4 3 2 3 3 3 1 1 2 4 4 4 4 4 5 5 5 5 5 5 5 4 4 4 6 6 6 5 5 7 7 6 6 6 6 7 6 6 7 7 7 6 6 7 6 6 6 7 8
5 8 6 5 4 5 7 8 7 5 5 5 7 7 7 6 7 6 6 6 6 6 6 6 7 7 6 4 4 5 7 5 4 4 5 6 5 5 4 4 3 3 0 3 3 4 4 4 4 4 4 4 5 5 4 3 3 4 3 3 3 3 3 3 5 5 4 5 6 7 7 6 6 5 5 6 7 7 5 5 6 7 7 7 6 6 7
3 2 4 4 4 3 6 7 7 6 5 6 6 6 6 5 6 5 6 5 4 4 2 4 5 6 5 4 3 3 5 3 2 3 6 4 4 3 3 2 3 2 3 3 3 3 4 4 4 4 4 4 3 2 3 1 2 4 3 3 3 3 3 3 4 4 5 5 6 5 5 6 7 7 7 9 8 7 7 10 12 11 6 5 7 8 9
3 5 3 2 6 4 5 7 7 6 5 6 6 6 6 4 5 4 4 4 4 3 2 3 8 8 6 4 4 1 3 3 3 5 4 3 1 2 1 1 2 3 3 3 4 4 3 4 3 4 4 4 4 4 1 3 4 3 3 1 1 2 3 4 5 5 5 5 5 6 6 6 6 7 7 6 8 10 11 12 13 16 17 17 17 14 10
6 4 6 6 5 5 3 4 5 7 5 5 6 7 5 4 3 1 1 2 6 5 2 2 9 11 8 5 4 4 3 7 5 3 1 0 2 1 4 5 5 4 4 4 3 4 4 3 2 1 4 5 5 1 2 3 3 2 1 1 1 2 3 3 3 3 4 5 6 6 6 6 6 6 6 7 6 6 11 12 13 14 15 16 16 14 16
4 4 8 7 7 6 3 5 5 6 5 7 7 6 7 6 4 7 4 6 7 6 8 9 7 5 5 5 4 4 7 4 4 3 3 4 4 4 4 6 6 4 4 4 4 3 3 1 2 4 4 6 3 1 2 3 2 1 1 2 2 3 3 4 4 5 5 5 5 6 6 7 6 6 6 6 8 8 8 11 12 11 12 14 15 17 15
5 5 6 6 5 3 2 5 6 6 6 5 5 4 5 6 5 3 2 4 3 6 6 6 8 8 7 5 4 5 5 4 2 2 4 5 5 5 5 4 4 3 4 3 3 4 4 4 4 4 6 6 1 0 2 3 1 1 2 3 4 3 3 4 4 4 4 4 5 6 6 7 7 7 7 7 7 7 7 8 12 11 9 10 14 13 11
4 4 4 6 8 6 6 7 3 4 3 3 5 5 4 4 3 1 0 1 3 5 4 4 4 5 7 6 5 3 2 2 4 4 4 6 4 4 2 3 4 5 5 5 5 5 6 5 5 7 5 2 0 0 1 1 0 1 2 2 2 4 5 4 2 3 4 4 5 5 6 6 7 7 7 7 6 5 6 6 7 10 11 11 9 9 12
6 7 7 6 4 3 3 4 5 4 4 6 4 3 3 1 1 1 0 1 3 2 4 4 3 4 5 4 5 4 4 3 3 1 2 5 4 3 3 4 4 3 4 6 5 6 8 6 4 3 4 3 1 1 1 1 1 2 1 1 1 1 1 1 1 2 4 4 5 5 5 5 6 7 6 6 6 6 5 5 6 8 9 8 9 12 14
6 7 5 6 5 5 3 3 3 4 5 4 3 1 1 2 2 1 2 0 2 4 6 6 6 4 3 3 3 3 2 3 5 5 3 2 2 3 4 4 3 1 4 5 6 4 5 4 4 4 6 6 3 1 1 2 2 1 1 1 0 1 2 1 3 3 4 4 4 4 4 5 6 6 5 5 5 5 5 6 7 7 8 9 9 11 7
6 5 4 4 4 2 1 1 3 3 4 6 6 5 4 6 4 4 3 2 4 8 6 4 5 7 8 6 5 6 5 3 3 2 3 4 3 3 2 2 1 1 2 4 3 5 5 5 4 4 6 5 4 2 1 3 1 1 1 0 3 3 1 1 2 3 4 5 5 4 5 4 5 4 5 4 5 5 6 6 8 7 7 8 7 7 9
5 6 6 4 5 4 5 4 2 1 1 3 5 5 4 4 2 1 3 2 5 5 4 6 7 6 6 6 5 4 3 2 1 1 3 3 2 1 1 1 2 3 3 4 6 5 5 6 5 5 6 6 3 3 1 2 3 3 0 1 2 4 2 3 3 4 5 5 5 5 5 5 4 5 5 6 6 6 6 6 6 6 7 8 8 8 8
7 6 6 4 2 1 4 4 1 1 0 2 5 4 5 4 1 0 1 4 4 4 4 6 7 6 6 5 4 4 3 1 1 1 1 1 0 0 0 0 1 3 4 5 6 6 6 5 6 6 5 4 2 4 2 3 3 4 0 2 0 1 2 3 3 4 5 4 4 4 3 4 4 5 5 5 5 5 6 6 7 7 7 8 7 4 3
4 5 4 2 1 1 2 3 3 3 1 2 3 5 5 5 4 1 2 4 3 1 5 6 5 5 4 4 4 3 3 3 3 2 1 1 0 1 1 1 3 4 5 7 7 7 7 6 7 5 5 3 2 3 2 3 4 3 1 2 1 1 2 3 4 5 5 4 4 4 4 4 5 5 5 6 6 6 6 6 6 6 5 4 4 4 3
8 7 5 4 4 3 1 1 3 4 4 5 1 5 5 4 4 3 3 4 3 4 7 6 6 5 4 4 4 3 4 3 3 1 1 1 1 2 2 3 4 5 7 8 8 7 6 6 4 4 3 3 3 2 1 3 3 2 2 3 3 3 3 4 5 5 5 6 6 5 4 4 5 5 6 6 6 5 6 6 5 3 3 3 3 4 5
5 4 4 5 5 2 3 3 3 3 1 4 4 2 3 2 1 3 5 3 2 4 6 7 6 5 5 4 4 2 2 2 3 1 1 2 3 3 3 3 5 5 7 6 6 7 4 3 1 1 3 2 2 1 1 3 2 3 2 4 3 3 3 5 5 5 5 6 5 5 5 5 5 5 6 5 5 6 3 3 3 3 3 4 4 5 4
4 2 2 3 2 3 4 3 1 1 3 2 2 1 1 2 2 4 4 3 5 8 8 7 6 5 4 4 3 2 2 2 3 4 1 3 3 3 2 4 4 4 5 6 4 1 3 1 4 4 3 4 1 2 3 3 3 4 3 4 3 2 3 5 5 4 5 6 6 5 6 6 6 5 5 4 3 1 3 3 2 3 5 6 6 6 6
4 3 2 3 4 5 3 2 1 3 3 1 0 0 1 3 3 5 5 3 8 8 7 7 5 5 5 5 5 3 3 3 3 2 2 1 0 2 3 4 4 5 4 4 2 1 1 3 5 8 5 4 3 3 2 6 6 3 4 3 2 2 3 4 4 5 6 6 6 6 6 6 6 6 6 5 4 3 2 3 5 5 6 6 7 7 7
2 1 4 3 2 3 3 2 2 1 0 1 3 3 3 3 1 3 4 3 10 8 8 7 7 6 5 4 4 3 3 4 4 4 3 3 2 3 4 3 5 3 4 4 2 1 0 3 5 5 3 3 2 2 3 10 8 4 3 3 2 1 4 6 6 5 5 5 5 6 6 6 6 6 6 5 6 6 5 5 6 6 6 7 7 7 7
6 0 1 2 1 3 2 2 1 2 1 1 1 2 2 3 4 2 3 4 8 9 7 6 6 6 5 4 3 3 4 5 5 4 4 4 2 2 6 5 6 6 5 3 1 1 0 3 4 3 4 4 4 4 6 8 8 4 1 3 3 3 5 5 5 5 5 5 6 6 6 6 6 6 6 5 5 6 6 7 7 7 7 7 7 6 6
5 5 2 2 0 0 3 4 2 0 1 3 2 2 2 5 4 2 1 1 4 11 8 8 7 6 5 4 4 4 5 6 5 5 5 4 3 3 4 6 8 7 6 4 0 0 1 6 4 3 3 3 3 4 4 6 5 3 1 4 4 3 4 4 5 5 5 5 5 5 5 5 6 6 6 5 5 5 6 6 7 6 6 6 6 6 6
3 1 2 4 4 5 6 7 6 4 2 1 2 3 2 1 1 2 3 3 4 5 7 8 7 7 6 6 6 7 6 6 6 6 5 2 2 3 3 6 5 4 3 1 1 1 0 3 3 2 3 3 3 4 4 7 4 2 1 6 5 4 4 4 5 5 5 4 4 5 5 5 6 6 6 6 7 6 5 6 6 6 5 5 5 6 6
5 4 2 1 3 3 1 2 1 5 7 8 5 3 2 3 2 3 4 2 4 5 5 5 6 4 4 5 5 5 6 6 6 6 6 7 6 5 3 5 1 1 1 1 3 2 1 3 3 3 1 2 3 5 6 5 4 2 4 6 5 6 6 5 4 4 4 5 4 5 4 4 5 6 6 6 6 5 5 6 6 5 5 5 5 5 6
0 2 4 5 5 5 8 9 6 4 3 6 8 6 4 4 4 3 2 1 5 6 4 4 5 4 2 2 1 1 2 6 7 7 7 7 7 7 6 6 4 3 5 2 2 4 6 2 2 0 1 2 3 7 8 5 4 2 6 6 6 6 6 5 4 4 5 5 5 4 4 5 5 5 6 6 5 5 5 6 5 5 5 5 5 5 6
3 3 3 3 3 6 6 6 5 4 5 6 7 6 4 4 4 4 3 3 2 2 4 4 5 4 4 4 4 4 5 4 5 7 8 7 6 4 4 7 4 2 0 1 3 6 3 2 1 3 4 5 6 8 5 5 4 2 6 7 6 6 6 6 4 4 5 5 5 5 4 4 5 4 5 5 5 5 5 5 5 5 5 6 6 6 6
3 4 4 4 3 1 5 6 6 6 5 4 5 7 5 5 5 5 4 4 4 4 4 5 4 3 5 5 6 6 6 5 6 5 4 3 4 1 1 7 6 3 2 3 3 5 3 2 1 2 2 5 6 7 5 4 2 6 4 3 7 6 6 6 6 4 2 4 5 5 5 4 4 5 5 5 5 5 5 5 6 5 5 5 6 6 6
4 4 3 1 1 0 1 2 2 2 4 4 4 5 4 5 5 5 4 4 4 5 5 5 4 3 3 3 5 4 3 1 1 2 5 6 5 4 4 6 5 4 3 4 3 4 2 3 1 1 4 5 6 6 5 4 5 7 7 7 5 6 6 6 6 5 4 4 4 6 5 4 4 5 5 5 5 5 6 7 6 6 6 6 6 6 6
5 4 3 2 2 1 3 2 4 4 3 4 4 5 5 5 5 6 4 4 5 4 4 5 5 5 5 4 3 4 3 2 3 1 6 3 6 6 4 5 5 4 3 3 4 3 2 1 0 3 4 5 5 3 2 4 6 6 7 6 6 5 5 7 6 6 5 4 3 4 5 5 5 4 4 5 6 5 5 6 5 5 5 6 5 5 5
1 3 3 3 2 2 0 3 4 3 5 7 5 3 3 1 4 4 4 4 4 4 4 4 6 5 5 4 4 3 5 6 3 3 3 6 5 5 5 4 3 5 5 3 2 1 1 1 2 3 4 4 3 2 2 5 6 6 6 6 5 5 6 6 7 6 5 5 5 4 5 5 5 5 4 4 4 4 4 5 4 4 4 5 5 5 5
1 1 1 0 2 2 1 2 3 3 4 5 5 4 1 3 2 0 1 1 3 1 4 3 5 5 5 5 5 3 2 1 1 2 6 6 6 6 5 5 6 6 3 2 1 2 3 3 4 5 5 5 1 3 5 4 4 4 5 5 6 4 5 7 5 5 5 5 3 3 3 6 5 5 5 5 5 5 5 5 5 5 5 5 6 5 5
2 1 1 2 2 0 0 1 1 2 3 7 8 6 2 0 0 1 2 1 0 4 4 2 1 2 6 6 5 7 6 3 5 7 7 6 5 5 5 5 4 5 6 3 3 3 4 5 4 4 3 1 3 5 5 5 5 4 4 4 4 4 4 4 6 7 6 6 6 6 5 5 6 6 6 5 5 5 5 5 5 6 8 7 6 5 5
2 1 1 0 0 1 2 2 3 4 5 3 1 2 1 1 3 3 3 3 3 3 2 2 3 4 1 4 5 5 4 5 6 7 8 7 7 6 6 5 5 5 5 4 4 5 4 3 4 2 1 2 5 4 4 4 4 4 4 4 3 2 3 4 4 4 4 6 6 6 6 5 5 5 5 5 5 5 5 5 5 4 4 5 5 5 5
3 3 2 1 1 1 1 1 1 1 2 3 3 4 5 4 4 3 2 5 4 5 6 4 4 2 3 2 2 3 4 7 7 7 7 7 7 7 6 7 5 4 5 5 3 5 6 5 4 5 3 2 4 4 6 6 5 4 4 4 4 3 4 4 4 5 5 6 6 5 4 4 6 6 5 4 3 3 3 4 5 5 4 5 4 5 4
Wind_Direction
357 105 88 77 75 24 18 52 38 39 23 25 29 345 147 91 133 155 171 122 117 125 116 124 124 134 134 138 127 116 107 96 90 86 82 77 72 67 62 59 59 60 66 63 61 58 63 171 57 44 51 68 72 77 68 64 65 66 84 96 115 127 162 78 93 90 93 95 93 94 89 83 78 84 111 153 203 205 184 180 199 186 184 166 183 174 184
288 299 101 83 78 7 12 54 47 57 51 21 4 358 51 105 120 115 108 91 88 100 96 113 118 87 127 129 121 114 107 102 96 87 79 76 70 63 56 53 50 50 49 49 49 48 40 37 37 42 57 74 79 57 45 60 62 55 67 61 59 33 20 101 110 93 75 70 67 65 79 102 119 93 71 49 35 345 348 326 205 201 188 185 170 188 179
207 208 146 122 120 126 77 29 30 25 52 33 9 18 60 80 82 102 104 103 102 128 143 130 138 173 197 124 115 106 104 101 94 87 83 78 73 65 56 49 45 42 40 39 41 43 39 36 34 32 34 34 34 59 85 81 82 85 88 94 92 98 76 331 340 55 81 69 68 62 38 40 76 84 31 31 23 357 41 72 51 36 30 120 152 177 200
302 12 327 162 145 149 103 41 17 358 352 64 359 9 312 140 129 107 103 99 114 131 138 128 117 105 69 121 109 108 105 100 96 91 85 79 73 66 57 50 43 38 38 36 35 35 33 31 31 30 28 32 36 32 16 26 106 83 78 71 92 102 129 207 249 91 89 81 59 27 27 19 21 28 37 26 2 343 352 6 25 32 28 4 353 219 183
9 296 2 332 102 49 57 11 341 328 309 148 88 34 25 22 83 120 107 148 157 118 107 117 130 119 91 83 105 115 105 89 81 77 73 68 64 57 55 52 45 38 36 38 37 34 33 29 28 27 26 32 32 22 32 24 43 83 68 64 63 60 50 48 41 46 70 98 107 79 316 151 16 28 91 70 350 296 307 8 23 14 31 16 355 350 350
267 352 343 13 60 69 28 342 284 284 263 129 83 88 67 333 1 351 116 132 132 124 135 128 103 88 79 80 63 60 80 87 83 81 79 76 73 66 59 56 47 39 38 38 38 37 35 31 29 27 30 31 25 24 29 36 39 40 53 51 48 42 39 32 28 30 37 37 25 2 343 316 285 198 183 216 227 221 186 39 309 312 320 306 303 359 42
15 341 27 38 55 135 87 321 3 359 24 26 98 100 75 56 78 95 115 113 78 75 94 109 103 93 85 76 81 83 86 89 89 87 78 72 67 59 54 53 47 43 37 35 34 32 28 27 26 27 25 20 23 26 25 35 37 44 45 47 42 38 34 24 19 17 16 25 35 44 47 39 39 28 10 349 315 229 195 211 219 233 245 268 277 265 238
169 55 62 120 165 84 23 331 9 1 24 16 13 65 106 133 128 122 68 72 103 110 111 103 99 98 97 89 82 87 88 90 94 90 87 84 78 70 50 44 35 47 47 43 36 30 17 25 31 31 24 14 28 24 25 31 33 40 43 42 38 33 32 21 16 10 8 3 1 2 15 28 38 34 22 33 24 354 328 299 284 259 258 234 256 267 258
127 133 81 116 7 326 11 4 357 4 0 336 345 158 7 35 138 141 141 132 126 120 112 108 107 105 92 84 79 82 88 88 89 95 98 99 97 96 83 78 63 36 42 42 38 39 30 28 23 24 16 17 23 28 28 24 30 37 37 33 27 25 27 19 13 8 2 360 355 353 357 6 7 9 10 358 1 8 11 343 284 270 253 231 226 231 244
150 117 111 86 79 164 318 255 261 328 285 301 302 121 40 354 356 57 109 115 119 117 116 117 118 102 86 78 75 83 92 93 93 89 93 99 109 113 113 102 85 74 76 61 43 42 41 34 23 1 8 25 17 28 19 18 27 39 36 27 17 19 18 11 4 1 357 4 6 3 358 359 356 352 353 353 348 353 354 342 335 318 287 264 236 222 223
63 66 109 135 135 121 257 320 325 15 306 306 321 69 28 304 342 26 87 92 90 101 119 125 109 88 92 106 102 85 86 88 89 89 83 85 88 97 109 130 141 155 130 103 103 95 69 41 358 341 357 18 25 25 15 17 30 39 37 31 21 12 3 359 356 359 6 10 14 6 1 354 350 347 344 338 331 340 338 335 321 316 321 311 294 274 237
35 44 55 82 42 83 306 294 299 309 271 325 359 93 220 283 332 57 62 81 87 87 74 66 79 112 123 129 115 109 100 99 99 98 106 103 97 95 108 135 156 162 158 93 105 83 95 112 116 71 74 27 20 7 359 17 42 39 32 23 360 10 355 356 1 6 5 4 0 359 351 341 341 335 328 330 328 323 319 315 308 309 309 307 286 268 269
150 131 101 87 59 353 319 293 297 304 307 357 73 116 197 219 270 106 98 82 72 60 66 68 85 40 102 115 114 101 103 98 94 104 112 123 130 138 145 155 135 137 162 143 144 165 188 185 158 113 95 80 69 34 41 56 46 28 8 356 345 340 350 359 3 353 350 357 354 353 348 347 346 343 338 329 323 319 309 309 311 309 308 306 305 285 253
35 84 83 110 95 249 265 291 284 316 55 61 90 351 47 70 69 67 87 93 78 74 73 90 96 103 97 96 96 99 102 116 129 129 132 114 95 73 72 88 113 163 153 91 98 107 79 55 38 42 41 45 55 33 27 33 22 347 333 331 319 340 350 353 348 343 345 350 354 350 342 341 339 331 329 329 326 324 317 313 308 300 298 298 293 293 282
11 50 95 79 24 335 345 320 22 6 84 199 98 105 66 65 82 88 85 90 90 88 85 89 101 103 100 93 88 88 89 88 94 100 103 111 128 137 83 41 4 23 91 81 72 66 67 50 23 35 26 38 38 28 9 6 331 307 304 315 341 1 4 358 355 351 351 352 345 340 338 337 339 335 340 340 336 333 327 320 313 303 296 291 286 287 289
87 36 51 100 50 9 355 46 89 33 62 315 55 99 92 61 64 78 86 78 88 96 97 95 92 95 100 96 93 88 88 91 85 81 82 75 69 89 88 56 12 6 57 56 82 78 77 67 27 52 52 66 60 351 307 318 318 325 339 355 11 12 9 3 1 355 351 348 344 344 343 344 346 348 342 335 327 324 322 319 318 315 305 297 291 288 284
94 118 107 82 88 76 42 64 78 75 65 72 66 60 58 60 49 51 59 45 44 80 89 86 87 86 85 95 99 103 101 97 109 109 92 91 85 97 100 69 19 359 57 28 76 67 61 66 39 47 43 7 318 286 257 241 326 359 9 20 25 18 9 3 356 350 347 344 340 341 346 345 337 328 322 316 309 306 311 312 316 315 317 327 324 319 318
70 71 84 84 54 51 57 52 56 65 68 63 64 68 74 64 67 54 63 58 52 54 75 90 87 90 91 86 89 93 92 82 81 84 76 59 52 66 68 56 16 348 1 64 82 65 61 117 216 221 256 254 301 324 26 36 40 39 36 30 22 9 2 356 350 343 339 333 331 336 332 327 322 317 308 309 306 307 317 319 330 340 344 342 334 328 324
90 81 75 89 96 76 69 72 63 63 66 74 79 84 86 81 74 75 68 68 62 60 61 63 65 58 69 89 94 102 103 121 115 98 95 91 86 72 84 71 30 348 9 64 77 57 312 283 51 1 339 2 48 41 38 37 42 40 40 33 18 6 354 344 340 337 329 325 325 326 325 327 330 328 328 325 327 327 335 336 331 328 326 330 325 322 318
93 137 116 104 110 121 109 92 71 56 56 76 86 93 95 96 90 89 92 85 76 72 75 79 75 69 57 53 36 54 88 73 72 79 84 85 71 72 90 79 26 357 29 63 71 40 27 20 26 32 41 31 34 46 40 25 26 26 27 25 13 358 350 344 333 328 324 323 326 326 327 332 329 329 326 328 327 322 321 314 316 316 319 316 316 311 310
93 94 114 127 120 94 86 89 87 88 76 63 71 73 70 67 73 77 83 98 115 118 128 128 126 116 107 88 70 62 64 60 47 57 72 57 59 55 50 20 8 314 163 44 41 54 21 16 34 32 30 27 28 26 19 9 33 31 12 358 360 344 338 340 323 321 328 334 332 329 326 322 315 308 313 320 318 317 310 304 305 307 309 304 296 295 295
90 137 125 109 93 110 97 102 110 111 113 104 95 87 81 83 81 84 88 94 95 94 129 123 107 114 105 99 98 102 124 111 137 102 80 64 46 56 49 4 318 12 81 91 63 47 34 30 25 31 22 7 355 335 307 335 64 49 26 15 8 336 337 340 310 323 326 326 316 310 309 311 314 308 305 306 310 314 311 313 315 312 302 281 287 296 296
129 142 179 124 119 94 110 124 138 149 151 136 134 120 117 121 131 141 131 119 108 148 215 137 109 117 129 139 115 90 100 142 95 77 78 88 101 112 259 296 342 59 31 69 67 52 37 17 13 21 5 318 287 286 354 66 85 80 69 46 355 332 350 333 327 318 318 316 318 314 306 300 295 295 296 289 284 292 298 307 315 317 319 315 312 305 292
110 96 69 100 108 136 148 114 99 87 71 76 103 128 136 133 134 136 140 143 172 185 186 124 138 146 153 160 147 159 94 71 88 109 126 22 355 74 60 44 26 36 51 46 49 43 11 352 26 343 298 289 297 292 103 100 106 113 143 153 227 251 241 240 263 288 295 291 293 291 291 286 288 293 296 300 302 299 304 303 302 301 304 308 307 303 298
106 106 114 110 102 88 85 86 85 79 71 86 91 84 83 73 47 40 35 49 47 94 94 70 48 50 64 63 66 79 93 90 65 45 8 22 86 68 61 51 36 9 4 25 22 6 328 354 306 292 283 286 272 169 127 130 131 138 198 219 240 249 252 255 255 262 268 278 280 286 289 292 292 291 295 299 301 303 300 292 289 290 296 298 297 294 289
114 106 124 130 113 107 95 78 56 70 67 57 61 66 71 81 67 48 356 96 107 102 98 108 102 109 118 102 76 66 88 110 116 59 35 44 54 53 52 52 15 350 0 354 342 331 305 290 285 282 284 272 233 170 149 146 150 192 238 247 245 246 252 256 265 272 285 286 291 291 292 293 290 289 285 285 284 290 302 312 315 309 291 284 290 296 306
68 83 91 83 75 69 91 112 128 94 93 91 101 120 144 127 130 149 49 135 143 115 112 102 117 124 107 112 116 128 130 93 60 42 62 95 90 92 78 58 29 2 349 346 333 295 281 282 283 274 264 282 285 279 136 141 190 271 292 285 273 261 258 260 263 286 290 287 286 290 296 294 293 288 283 276 278 288 291 300 301 304 309 311 310 313 315
64 60 66 87 92 104 126 145 144 150 132 102 74 44 52 355 172 132 72 69 111 112 113 133 115 89 100 115 101 92 103 117 138 146 78 111 134 128 86 70 43 6 346 309 293 309 296 275 280 304 325 294 273 341 100 125 34 353 334 276 265 253 290 55 43 287 277 278 273 278 288 302 305 298 293 285 281 277 287 291 293 292 300 301 303 307 311
67 65 62 87 102 88 69 75 88 91 115 113 110 101 269 309 0 123 167 215 114 97 80 73 84 104 91 66 82 86 69 72 71 63 67 52 57 93 99 92 97 359 314 307 305 306 309 333 333 335 310 307 319 40 105 50 34 349 289 269 319 37 78 45 305 285 282 276 282 289 303 299 298 297 291 288 280 292 289 289 284 284 287 295 304 306 299
102 91 84 61 46 74 112 211 212 174 157 161 162 183 128 88 45 360 0 106 105 93 104 104 70 73 97 90 78 92 100 97 83 62 69 86 65 51 67 102 74 343 296 281 311 320 311 309 308 307 292 310 311 8 67 29 343 274 246 157 101 117 143 284 305 302 299 292 287 295 301 305 304 304 305 297 293 285 283 279 275 277 286 291 294 284 293
89 83 74 63 52 18 351 325 9 62 118 107 113 104 90 85 73 39 339 5 79 97 98 88 95 97 84 98 110 112 119 118 119 115 117 116 96 58 29 61 140 238 250 274 287 288 286 285 287 284 289 287 300 4 32 11 320 288 282 104 124 161 170 5 348 312 308 311 305 302 299 289 289 294 283 282 278 281 275 275 281 289 293 292 292 297 293
116 105 94 72 49 316 300 314 337 29 20 127 138 147 142 128 138 49 9 90 113 117 97 100 119 124 132 136 138 129 121 125 143 111 86 80 126 199 233 285 263 255 258 264 267 269 275 277 277 275 280 274 351 355 339 352 333 338 276 144 123 112 23 7 326 323 314 289 291 301 289 295 292 282 287 292 294 290 291 298 299 297 298 297 307 315 318
133 124 104 74 7 359 330 310 349 337 316 271 179 155 145 136 134 165 162 134 112 135 105 124 123 122 122 118 120 140 163 190 178 157 154 236 269 281 277 266 254 255 260 257 255 254 252 257 265 273 274 298 359 338 1 1 341 346 346 125 98 101 39 343 343 313 301 290 289 280 284 282 279 289 292 291 293 291 292 290 291 303 309 321 321 316 332
102 121 143 168 184 207 217 305 26 19 20 15 114 129 129 141 157 193 187 152 143 107 123 142 137 134 131 137 156 179 189 157 130 121 58 325 322 299 280 259 253 253 249 254 254 255 250 242 234 257 288 322 338 344 21 12 348 351 34 90 58 43 3 353 328 306 304 304 292 278 266 278 290 290 289 291 288 291 293 289 286 286 328 338 337 330 320
109 128 167 192 188 179 79 73 35 338 92 56 17 46 99 106 147 121 103 120 129 148 140 123 126 136 150 159 147 146 117 143 165 179 257 260 279 282 283 284 281 266 263 262 260 260 219 188 223 311 308 342 347 345 34 7 345 4 38 81 58 44 0 329 322 313 312 304 306 319 321 316 309 302 296 287 289 282 302 349 6 14 13 342 339 334 339
138 182 197 135 109 108 102 95 55 45 85 96 160 198 177 223 188 145 148 182 120 125 135 138 145 147 142 142 155 180 159 191 187 227 242 268 269 275 300 286 283 295 293 292 267 254 147 25 8 358 338 352 321 96 36 358 14 26 66 89 67 17 340 337 319 326 338 343 345 346 350 346 337 331 319 305 292 334 41 49 39 26 7 10 7 21 28
40 356 40 84 81 90 73 30 75 92 127 122 134 316 322 327 258 183 173 142 131 140 140 146 142 144 181 198 192 183 172 182 188 205 217 220 308 346 307 299 289 272 276 288 278 359 77 10 6 4 355 339 111 113 53 36 32 21 97 103 109 4 355 354 339 353 350 353 3 2 10 7 357 354 357 0 18 51 44 23 18 33 38 31 24 32 39
190 153 89 88 42 62 68 105 117 345 284 236 207 204 194 228 275 168 177 148 134 157 157 155 168 175 182 157 142 154 203 211 216 218 231 248 252 277 291 280 276 262 247 234 260 337 344 18 23 9 357 25 95 162 50 36 18 38 124 131 146 87 44 13 351 348 10 8 4 11 23 11 359 357 360 26 55 59 54 45 44 41 36 37 34 35 41
342 92 135 119 83 62 28 347 167 194 220 312 193 214 216 223 248 234 194 200 158 159 148 159 154 153 156 151 181 216 225 229 226 230 231 246 232 210 255 254 253 245 237 228 247 214 167 38 13 20 29 11 7 33 22 20 4 12 65 138 89 72 53 35 17 10 8 12 29 24 16 10 3 2 3 27 62 69 63 61 52 42 41 43 44 42 44
320 339 7 31 353 201 215 232 251 328 224 218 194 205 233 230 217 219 217 263 143 159 160 157 153 149 176 174 185 210 221 211 212 209 218 227 210 239 273 277 261 255 238 227 275 255 76 56 46 64 34 15 8 12 9 350 352 352 100 116 106 90 76 56 44 30 17 16 23 19 19 15 7 4 4 20 50 46 57 66 68 56 54 52 51 51 54
261 257 26 38 32 20 0 4 347 303 275 212 187 226 258 289 178 215 258 239 168 157 140 155 159 184 183 182 195 205 199 198 193 206 204 162 196 230 247 272 265 199 193 201 235 287 12 78 99 54 10 357 345 1 339 328 340 320 150 121 120 105 92 71 64 40 31 16 17 32 34 21 16 15 10 30 55 57 58 56 59 69 65 65 61 62 62
233 231 239 214 199 198 33 324 359 359 340 338 314 264 223 249 259 227 236 255 142 163 168 185 172 169 171 177 191 195 188 187 190 201 188 190 203 203 215 247 255 178 149 229 269 302 39 120 102 87 16 331 330 319 322 305 295 250 159 132 132 110 101 82 72 57 40 23 39 44 33 30 32 29 25 33 50 57 66 69 63 67 72 65 65 66 72
153 181 202 225 228 191 180 219 211 179 217 272 286 280 236 221 235 263 286 143 155 181 179 164 170 161 161 196 205 228 195 177 194 206 207 222 214 198 187 193 201 231 226 241 63 65 87 102 107 138 340 9 327 319 325 306 275 185 144 147 126 115 110 108 98 81 57 55 50 47 46 39 42 41 42 41 40 47 60 68 73 68 72 72 66 59 60
242 251 246 236 213 205 212 205 206 194 209 236 255 271 239 203 197 212 231 258 281 212 187 155 173 182 181 176 173 194 232 231 209 195 197 218 241 239 166 155 176 182 311 50 88 104 110 120 117 358 353 347 346 340 324 313 348 103 153 145 134 127 121 118 115 102 88 75 62 63 56 53 50 54 56 57 59 55 57 67 69 72 75 75 75 74 72
224 232 240 241 269 252 190 195 185 195 211 230 244 253 216 203 201 204 206 207 235 247 191 169 162 172 185 185 191 200 218 205 196 185 198 242 235 229 161 142 148 170 142 118 118 116 120 114 1 347 339 357 345 336 333 329 50 61 40 84 128 132 132 128 122 117 115 104 89 68 65 72 72 65 59 59 60 67 69 64 62 59 64 69 70 74 73
272 248 224 190 287 263 128 113 117 207 235 243 271 269 225 182 187 197 199 212 220 222 182 172 162 195 214 199 203 203 205 189 210 151 151 168 163 196 166 145 149 138 107 75 103 134 164 157 77 348 351 350 348 347 333 351 46 58 56 41 76 129 132 129 122 123 123 125 116 109 101 89 74 72 75 76 74 79 79 80 76 72 72 73 69 72 73
291 289 274 241 248 191 216 190 138 170 253 268 267 280 250 198 175 187 200 211 223 222 197 179 180 185 189 192 178 164 173 224 280 132 116 97 108 114 115 114 116 110 96 110 137 154 166 157 58 327 341 328 348 333 347 51 61 63 67 60 53 78 118 131 134 142 150 155 136 122 114 99 88 81 75 81 85 84 83 84 83 86 91 93 88 79 72
353 9 13 15 348 3 39 153 152 189 235 243 242 263 314 265 184 181 197 214 210 219 230 194 182 186 187 182 183 167 168 161 208 258 160 138 138 128 131 139 143 123 122 125 138 136 92 239 282 299 298 319 329 320 72 72 66 70 80 82 75 68 77 109 132 144 150 140 143 145 136 119 113 102 89 76 75 79 90 95 103 96 79 71 74 81 83
174 166 145 67 5 353 107 159 210 238 259 254 242 240 166 58 26 188 194 11 349 293 247 202 181 190 185 172 169 180 221 178 135 202 187 151 150 157 164 167 169 161 155 164 215 263 230 245 256 263 285 310 296 128 103 94 94 84 80 89 99 84 86 97 119 137 139 144 134 122 120 122 119 107 95 84 77 74 74 77 80 85 82 81 77 74 75
301 209 193 185 174 166 16 231 173 207 232 279 260 221 175 139 94 157 184 139 2 322 312 278 248 209 182 170 175 175 196 186 134 129 141 154 147 150 158 167 170 179 180 193 211 241 235 223 254 271 289 20 95 103 110 117 120 119 104 92 96 115 110 106 114 118 121 116 108 103 100 100 104 109 106 106 102 96 97 102 100 94 95 95 95 93 88
266 282 97 244 145 176 183 184 188 208 231 237 335 17 20 203 224 205 197 178 170 236 269 312 341 357 338 218 177 183 179 157 143 129 127 148 155 160 162 171 170 179 192 210 213 209 223 205 236 264 353 97 101 100 116 113 107 125 143 151 151 118 89 83 87 100 116 124 126 127 124 119 116 115 121 122 127 131 128 119 109 100 99 103 105 104 104
81 79 119 109 33 348 14 32 55 15 336 336 288 243 265 257 224 190 220 211 202 217 219 219 245 268 49 359 285 246 194 160 141 138 139 138 140 150 162 161 172 191 204 211 199 187 199 208 215 217 154 114 127 128 126 124 123 114 102 99 105 110 124 127 121 114 115 115 117 120 126 128 126 128 131 138 134 113 98 96 99 98 97 99 103 107 116